Weather History for KGNR - March, 2013

Change the Weather History Date:

Thursday, March 7, 2013

  Actual Average (KMLT) Record (KMLT)
Temperature  
Mean Temperature 26 °F 25 °F  
Max Temperature 28 °F 35 °F 53 °F (1974)
Min Temperature 24 °F 15 °F -17 °F (2003)
Degree Days  
Heating Degree Days 39 40  
Month to date heating degree days 286  
Since 1 July heating degree days 6338  
Cooling Degree Days 0 0  
Month to date cooling degree days 0  
Year to date cooling degree days 0  
Moisture  
Dew Point 18 °F    
Average Humidity 73    
Maximum Humidity 78    
Minimum Humidity 67    
Precipitation  
Precipitation 0.00 in 0.07 in 1.68 in (1922)
Month to date precipitation 0.51  
Year to date precipitation 5.62  
Sea Level Pressure  
Sea Level Pressure 30.24 in    
Wind  
Wind Speed 10 mph (ENE)    
Max Wind Speed 13 mph    
Max Gust Speed 21 mph    
T = Trace of Precipitation, MM = Missing Value Source: NWS Daily Summary

Daily Weather History Graph

Daily Weather History Graph

Search for Another Location

Airport or City:

Trip Planner

Search our weather history database for the weather conditions in past years. The results will help you decide how hot, cold, wet, or windy it might be!

Date:

Astronomy

Mar. 07, 2013 Rise Set
Actual Time 6:05 AM EST 5:33 PM EST
Civil Twilight 5:35 AM EST 6:03 PM EST
Nautical Twilight 5:01 AM EST 6:37 PM EST
Astronomical Twilight 4:27 AM EST 7:12 PM EST
Moon 3:13 AM EST (3/7) 1:08 PM EST (3/7)
Length of Visible Light 12h 27m
Length of Day
11h 28m
Waning Crescent, 20% of the Moon is Illuminated
Mar 7
Waning Crescent
Mar 11
New
Mar 19
First Quarter
Mar 27
Full
Apr 3
Last Quarter

Hourly Weather History & Observations

Time (EST) Temp. Windchill Dew Point Humidity Pressure Visibility Wind Dir Wind Speed Gust Speed Precip Events Conditions
12:56 AM 25.0 °F 14.8 °F 17.1 °F 72% 30.28 in - East 10.4 mph 16.1 mph N/A   Unknown
1:56 AM 25.0 °F 14.2 °F 17.1 °F 72% 30.28 in - East 11.5 mph - N/A   Unknown
2:56 AM 25.0 °F 17.1 °F 17.1 °F 72% 30.27 in - ENE 6.9 mph - N/A   Unknown
3:56 AM 25.0 °F 14.8 °F 17.1 °F 72% 30.25 in - East 10.4 mph 17.3 mph N/A   Unknown
4:56 AM 25.0 °F 14.8 °F 17.1 °F 72% 30.26 in - ENE 10.4 mph - N/A   Unknown
5:56 AM 24.1 °F 13.7 °F 18.0 °F 77% 30.26 in - East 10.4 mph 16.1 mph N/A   Unknown
6:56 AM 24.1 °F 13.7 °F 17.1 °F 75% 30.27 in - ENE 10.4 mph 20.7 mph N/A   Unknown
7:56 AM 24.1 °F 13.7 °F 17.1 °F 75% 30.28 in - East 10.4 mph 18.4 mph N/A   Unknown
8:56 AM 25.0 °F 17.1 °F 17.1 °F 72% 30.27 in - NE 6.9 mph - N/A   Unknown
9:56 AM 25.0 °F 14.8 °F 18.0 °F 75% 30.27 in - ENE 10.4 mph - N/A   Unknown
10:56 AM 25.0 °F 14.8 °F 18.0 °F 75% 30.26 in - NE 10.4 mph - N/A   Unknown
11:56 AM 26.1 °F 15.6 °F 18.0 °F 71% 30.25 in - ENE 11.5 mph 17.3 mph N/A   Unknown
12:56 PM 27.0 °F 16.7 °F 19.0 °F 72% 30.23 in - NE 11.5 mph - N/A   Unknown
1:56 PM 27.0 °F 16.1 °F 19.0 °F 72% 30.22 in - NE 12.7 mph - N/A   Unknown
2:56 PM 28.0 °F 17.5 °F 19.0 °F 69% 30.22 in - ENE 12.7 mph 19.6 mph N/A   Unknown
3:56 PM 28.9 °F 19.2 °F 19.0 °F 67% 30.21 in - NE 11.5 mph - N/A   Unknown
4:56 PM 28.0 °F 18.6 °F 19.0 °F 69% 30.21 in - NE 10.4 mph - N/A   Unknown
5:56 PM 27.0 °F 20.5 °F 19.0 °F 72% 30.22 in - ENE 5.8 mph - N/A   Unknown
6:56 PM 26.1 °F 16.8 °F 19.0 °F 75% 30.22 in - ENE 9.2 mph - N/A   Unknown
7:56 PM 26.1 °F 18.4 °F 19.0 °F 75% 30.22 in - ENE 6.9 mph - N/A   Unknown
8:56 PM 26.1 °F 16.2 °F 19.0 °F 75% 30.20 in - NE 10.4 mph - N/A   Unknown
9:56 PM 26.1 °F 19.4 °F 19.0 °F 75% 30.18 in - NNE 5.8 mph - N/A   Unknown
10:56 PM 25.0 °F 14.8 °F 19.0 °F 78% 30.18 in - NE 10.4 mph - N/A   Unknown
11:56 PM 25.0 °F 14.8 °F 18.0 °F 75% 30.18 in - NE 10.4 mph - N/A   Unknown